RADUGA-1 5 [-]

Last updated on Sept. 26, 2020, 5:40 a.m. UTC

1 26477U 00049A   20269.41640234  .00000021  00000-0  00000-0 0  9995
2 26477  12.7459  23.1899 0004905  21.6390 166.9649  1.00327507 73452
UTC
Height (km)
Latitude
Longitude
Inclination
Orbital Period
UTC large
Height (km)
Speed (km/s)
/
Latitude / Longitude
Inclination (degrees)
Orbital Period (minutes)
Azimuth
Elevation
Range (km)
Doppler Factor
iOS Compass Heading
iOS Angle

Next 30 passes for location: Hong Kong

Rise time Rise Azimuth (degrees) Set time Set Azimuth (degrees) Duration Max altitude (degrees)

No matching passes for this satellites